POEM-4

Last updated on Thu Jan 30 2025 00:02:04 GMT+0000 (Coordinated Universal Time)

1 62461U 24253C 25029.69186333 .00116880 00000+0 67343-3 0 9991 2 62461 55.2210 112.5902 0009959 7.4776 352.6419 15.77853628 4713
UTC large
Height (km)
Speed (km/s)
/
Latitude / Longitude
Inclination (degrees)
Orbital Period (minutes)
Azimuth
Elevation
Range (km)
Doppler Factor

Next 0 passes for location: London (51.5072 / 0.1276)

Sorry there are no passes over London.